Location: Campo Alegre
(10.1673°N, 67.4431°W)
Time: 13:24:27
(UTC+00:00)

Ariane H10 - Visible Passes

Search period start: 12 July 2024 00:00
Search period end: 22 July 2024 00:00
Orbit: 369 x 30242 km, 7.2° (Epoch: 11 July)

Date Brightness Start Highest point End Pass type
(mag) Time Alt. Az. Time Alt. Az. Time Alt. Az.
12 Jul 6.8 19:54:03 10° W 21:43:59 42° W 03:33:11 55° WSW visible
14 Jul 7.4 15:33:44 10° WSW 21:40:33 84° SE 23:41:14 10° E visible
15 Jul 6.4 18:16:44 10° W 20:15:26 64° W 02:10:28 63° SE visible
16 Jul 7.4 21:29:37 10° W 22:53:19 21° W 04:39:24 26° WSW visible
18 Jul 6.9 16:45:05 10° WSW 00:18:46 81° SSW 00:47:39 31° ESE visible
19 Jul 6.7 19:35:51 10° W 21:26:22 43° W 03:16:32 56° SW visible
21 Jul 7.4 15:16:01 10° WSW 21:21:46 83° SE 23:23:23 10° E visible
